TimeAKDT,TemperatureF,Dew PointF,Humidity,Sea Level PressureIn,VisibilityMPH,Wind Direction,Wind SpeedMPH,Gust SpeedMPH,PrecipitationIn,Events,Conditions,WindDirDegrees,DateUTC
12:53 AM,43.0,39.9,89,29.52,10.0,Calm,Calm,-,N/A,,Overcast,0,2011-10-03 08:53:00
1:53 AM,42.1,39.0,89,29.52,10.0,SSW,3.5,-,N/A,,Overcast,200,2011-10-03 09:53:00
2:53 AM,41.0,39.0,93,29.51,10.0,East,3.5,-,N/A,,Overcast,80,2011-10-03 10:53:00
3:53 AM,39.9,37.0,89,29.49,10.0,Calm,Calm,-,N/A,,Overcast,0,2011-10-03 11:53:00
4:53 AM,37.9,36.0,93,29.49,10.0,Calm,Calm,-,N/A,,Overcast,0,2011-10-03 12:53:00
5:53 AM,37.9,36.0,93,29.49,10.0,Calm,Calm,-,N/A,,Mostly Cloudy,0,2011-10-03 13:53:00
6:53 AM,36.0,34.0,93,29.47,9.0,Calm,Calm,-,N/A,,Mostly Cloudy,0,2011-10-03 14:53:00
6:57 AM,35.6,33.8,93,29.47,10.0,Calm,Calm,-,N/A,,Scattered Clouds,0,2011-10-03 14:57:00
7:53 AM,35.1,33.1,92,29.47,10.0,Calm,Calm,-,N/A,,Mostly Cloudy,0,2011-10-03 15:53:00
8:53 AM,35.1,33.1,92,29.46,10.0,Calm,Calm,-,N/A,,Clear,0,2011-10-03 16:53:00
9:53 AM,37.9,34.0,86,29.46,10.0,Calm,Calm,-,N/A,,Scattered Clouds,0,2011-10-03 17:53:00
10:53 AM,39.9,37.0,89,29.46,10.0,Calm,Calm,-,N/A,,Scattered Clouds,0,2011-10-03 18:53:00
11:53 AM,46.0,39.9,79,29.46,10.0,NNW,3.5,-,N/A,,Scattered Clouds,340,2011-10-03 19:53:00
12:53 PM,48.0,37.9,68,29.45,10.0,Variable,3.5,-,N/A,,Partly Cloudy,0,2011-10-03 20:53:00
1:53 PM,50.0,37.0,61,29.44,10.0,Calm,Calm,-,N/A,,Partly Cloudy,0,2011-10-03 21:53:00
2:53 PM,50.0,37.9,63,29.44,10.0,Variable,3.5,-,N/A,,Partly Cloudy,0,2011-10-03 22:53:00
3:53 PM,51.1,37.0,59,29.44,10.0,Calm,Calm,-,N/A,,Clear,0,2011-10-03 23:53:00
4:53 PM,51.1,37.9,61,29.44,10.0,WSW,4.6,-,N/A,,Clear,240,2011-10-04 00:53:00
5:53 PM,51.1,35.1,54,29.44,10.0,NW,4.6,-,N/A,,Scattered Clouds,310,2011-10-04 01:53:00
6:53 PM,48.9,36.0,61,29.44,10.0,West,3.5,-,N/A,,Scattered Clouds,270,2011-10-04 02:53:00
7:53 PM,46.0,36.0,68,29.45,10.0,Calm,Calm,-,N/A,,Scattered Clouds,0,2011-10-04 03:53:00
8:53 PM,45.0,36.0,71,29.46,10.0,Calm,Calm,-,N/A,,Scattered Clouds,0,2011-10-04 04:53:00
9:53 PM,43.0,36.0,76,29.47,10.0,Calm,Calm,-,N/A,,Mostly Cloudy,0,2011-10-04 05:53:00
10:53 PM,42.1,34.0,73,29.48,10.0,Calm,Calm,-,N/A,,Mostly Cloudy,0,2011-10-04 06:53:00
11:53 PM,39.9,34.0,79,29.49,10.0,SE,3.5,-,N/A,,Mostly Cloudy,140,2011-10-04 07:53:00